iso_date,epoch_date,Year,Hour,Min,DOY,POS_DOY,Lat,Lon,BP,Ts,Ta,has_bp,has_ts,has_ta,BuoyID,Buoy_Type,Buoy_Owner,Logistics,Hemisphere
2014-08-02T22:58:04Z,1407020285,2014,22,58,214.957,-999.0,69.3392,-168.6683,1019.0,-999.00,11.24,yes,no,yes,300234061823050,AWS,BAS,unknown,North
2014-08-02T23:58:33Z,1407023914,2014,23,59,214.999,-999.0,69.555,-168.6661,1019.0,-999.00,7.32,yes,no,yes,300234061823050,AWS,BAS,unknown,North
2014-08-03T01:58:04Z,1407031085,2014,1,58,215.082,-999.0,69.9797,-168.6654,1019.0,-999.00,6.01,yes,no,yes,300234061823050,AWS,BAS,unknown,North
2014-08-03T02:58:33Z,1407034714,2014,2,59,215.124,-999.0,70.1907,-168.6662,1019.0,-999.00,6.21,yes,no,yes,300234061823050,AWS,BAS,unknown,North
2014-08-03T03:57:36Z,1407038256,2014,3,58,215.165,-999.0,70.3957,-168.6661,1018.0,-999.00,5.74,yes,no,yes,300234061823050,AWS,BAS,unknown,North
2014-08-03T04:58:04Z,1407041885,2014,4,58,215.207,-999.0,70.5002,-168.6676,1018.0,-999.00,5.1,yes,no,yes,300234061823050,AWS,BAS,unknown,North
2014-08-03T05:58:33Z,1407045514,2014,5,59,215.249,-999.0,70.4999,-168.6683,1018.0,-999.00,6.51,yes,no,yes,300234061823050,AWS,BAS,unknown,North
2014-08-03T06:57:36Z,1407049056,2014,6,58,215.29,-999.0,70.6383,-168.3764,1018.0,-999.00,4.36,yes,no,yes,300234061823050,AWS,BAS,unknown,North
2014-08-03T07:59:31Z,1407052771,2014,7,59,215.333,-999.0,70.8145,-168.0029,1018.0,-999.00,3.98,yes,no,yes,300234061823050,AWS,BAS,unknown,North
2014-08-03T08:58:33Z,1407056314,2014,8,58,215.374,-999.0,70.992,-167.6259,1018.0,-999.00,4.38,yes,no,yes,300234061823050,AWS,BAS,unknown,North
2014-08-03T09:59:02Z,1407059942,2014,9,59,215.416,-999.0,71.1688,-167.2443,1018.0,-999.00,3.82,yes,no,yes,300234061823050,AWS,BAS,unknown,North
2014-08-03T10:58:04Z,1407063485,2014,10,58,215.457,-999.0,71.3386,-166.8763,1018.0,-999.00,3.73,yes,no,yes,300234061823050,AWS,BAS,unknown,North
2014-08-03T11:58:33Z,1407067114,2014,11,59,215.499,-999.0,71.4299,-166.6779,1018.0,-999.00,3.92,yes,no,yes,300234061823050,AWS,BAS,unknown,North
2014-08-03T12:59:02Z,1407070742,2014,12,59,215.541,-999.0,71.4351,-166.6645,1018.0,-999.00,3.92,yes,no,yes,300234061823050,AWS,BAS,unknown,North
2014-08-03T13:58:04Z,1407074285,2014,13,58,215.582,-999.0,71.6069,-166.328,1018.0,-999.00,2.79,yes,no,yes,300234061823050,AWS,BAS,unknown,North
2014-08-03T14:58:33Z,1407077914,2014,14,58,215.624,-999.0,71.7613,-166.2299,1018.0,-999.00,1.86,yes,no,yes,300234061823050,AWS,BAS,unknown,North
2014-08-03T15:59:02Z,1407081542,2014,15,59,215.666,-999.0,71.9076,-165.9221,1018.0,-999.00,1.95,yes,no,yes,300234061823050,AWS,BAS,unknown,North
2014-08-03T21:57:36Z,1407103056,2014,21,58,215.915,-999.0,72.36,-164.6857,1019.0,-999.00,1.38,yes,no,yes,300234061823050,AWS,BAS,unknown,North
2014-08-03T22:59:31Z,1407106771,2014,22,59,215.958,-999.0,72.3587,-164.5905,1020.0,-999.00,1.2,yes,no,yes,300234061823050,AWS,BAS,unknown,North
2014-08-03T23:58:33Z,1407110314,2014,23,59,215.999,-999.0,72.4158,-164.2012,1020.0,-999.00,2.51,yes,no,yes,300234061823050,AWS,BAS,unknown,North
2014-08-04T00:59:02Z,1407113942,2014,0,59,216.041,-999.0,72.4708,-163.8165,1020.0,-999.00,2.51,yes,no,yes,300234061823050,AWS,BAS,unknown,North
2014-08-04T01:59:31Z,1407117571,2014,1,59,216.083,-999.0,72.5325,-163.4241,1021.0,-999.00,2.51,yes,no,yes,300234061823050,AWS,BAS,unknown,North
2014-08-04T02:58:33Z,1407121114,2014,2,58,216.124,-999.0,72.5975,-162.9404,1021.0,-999.00,2.61,yes,no,yes,300234061823050,AWS,BAS,unknown,North
2014-08-04T03:59:02Z,1407124742,2014,3,59,216.166,-999.0,72.6864,-162.6057,1021.0,-999.00,1.39,yes,no,yes,300234061823050,AWS,BAS,unknown,North
2014-08-04T04:58:04Z,1407128285,2014,4,58,216.207,-999.0,72.7729,-162.5144,1021.0,-999.00,0.27,yes,no,yes,300234061823050,AWS,BAS,unknown,North
2014-08-04T05:58:33Z,1407131914,2014,5,58,216.249,-999.0,72.856,-162.372,1021.0,-999.00,-0.39,yes,no,yes,300234061823050,AWS,BAS,unknown,North
2014-08-04T06:59:02Z,1407135542,2014,6,59,216.291,-999.0,72.9305,-162.2016,1022.0,-999.00,-1.03,yes,no,yes,300234061823050,AWS,BAS,unknown,North
2014-08-04T07:58:04Z,1407139085,2014,7,58,216.332,-999.0,73.0485,-161.9937,1022.0,-999.00,-1.76,yes,no,yes,300234061823050,AWS,BAS,unknown,North
2014-08-04T09:59:02Z,1407146342,2014,9,59,216.416,-999.0,73.2414,-162.4919,1022.0,-999.00,-1.86,yes,no,yes,300234061823050,AWS,BAS,unknown,North
2014-08-04T10:59:31Z,1407149971,2014,10,59,216.458,-999.0,73.2866,-162.6986,1022.0,-999.00,-2.51,yes,no,yes,300234061823050,AWS,BAS,unknown,North
2014-08-04T11:58:33Z,1407153514,2014,11,59,216.499,-999.0,73.3061,-162.6518,1022.0,-999.00,-2.59,yes,no,yes,300234061823050,AWS,BAS,unknown,North
2014-08-04T12:57:36Z,1407157056,2014,12,58,216.54,-999.0,73.3109,-162.6392,1022.0,-999.00,-3.05,yes,no,yes,300234061823050,AWS,BAS,unknown,North
2014-08-04T13:58:04Z,1407160685,2014,13,58,216.582,-999.0,73.3086,-162.645,1022.0,-999.00,-3.05,yes,no,yes,300234061823050,AWS,BAS,unknown,North
2014-08-04T15:00:00Z,1407164400,2014,15,0,216.625,-999.0,73.3804,-162.5,1022.0,-999.00,-2.58,yes,no,yes,300234061823050,AWS,BAS,unknown,North
2014-08-04T16:58:04Z,1407171485,2014,16,58,216.707,-999.0,73.6337,-162.0923,1022.0,-999.00,-1.1,yes,no,yes,300234061823050,AWS,BAS,unknown,North
2014-08-04T17:58:33Z,1407175114,2014,17,59,216.749,-999.0,73.7575,-161.9427,1023.0,-999.00,0.03,yes,no,yes,300234061823050,AWS,BAS,unknown,North
2014-08-04T18:59:02Z,1407178742,2014,18,59,216.791,-999.0,73.873,-161.7183,1022.0,-999.00,0.67,yes,no,yes,300234061823050,AWS,BAS,unknown,North
2014-08-04T19:58:04Z,1407182285,2014,19,58,216.832,-999.0,73.9796,-161.4112,1022.0,-999.00,1.6,yes,no,yes,300234061823050,AWS,BAS,unknown,North
2014-08-04T20:58:33Z,1407185914,2014,20,59,216.874,-999.0,74.0935,-161.0681,1022.0,-999.00,3.85,yes,no,yes,300234061823050,AWS,BAS,unknown,North
2014-08-04T21:57:36Z,1407189456,2014,21,58,216.915,-999.0,74.2047,-160.7651,1022.0,-999.00,2.9,yes,no,yes,300234061823050,AWS,BAS,unknown,North
2014-08-04T22:58:04Z,1407193085,2014,22,58,216.957,-999.0,74.2195,-160.7035,1022.0,-999.00,2.16,yes,no,yes,300234061823050,AWS,BAS,unknown,North
2014-08-04T23:58:33Z,1407196714,2014,23,59,216.999,-999.0,74.2208,-160.6991,1022.0,-999.00,1.7,yes,no,yes,300234061823050,AWS,BAS,unknown,North
2014-08-05T00:59:02Z,1407200342,2014,0,59,217.041,-999.0,74.2207,-160.6998,1022.0,-999.00,1.6,yes,no,yes,300234061823050,AWS,BAS,unknown,North
2014-08-05T01:58:04Z,1407203885,2014,1,58,217.082,-999.0,74.2221,-160.6985,1022.0,-999.00,1.23,yes,no,yes,300234061823050,AWS,BAS,unknown,North
2014-08-05T02:58:33Z,1407207514,2014,2,59,217.124,-999.0,74.2673,-160.6221,1021.0,-999.00,0.76,yes,no,yes,300234061823050,AWS,BAS,unknown,North
2014-08-05T03:57:36Z,1407211056,2014,3,58,217.165,-999.0,74.3901,-160.3702,1021.0,-999.00,0.48,yes,no,yes,300234061823050,AWS,BAS,unknown,North
2014-08-05T04:59:31Z,1407214771,2014,4,59,217.208,-999.0,74.4962,-160.1412,1021.0,-999.00,0.2,yes,no,yes,300234061823050,AWS,BAS,unknown,North
2014-08-05T05:58:33Z,1407218314,2014,5,59,217.249,-999.0,74.6027,-159.9213,1021.0,-999.00,0.11,yes,no,yes,300234061823050,AWS,BAS,unknown,North
2014-08-05T06:59:02Z,1407221942,2014,6,59,217.291,-999.0,74.7191,-159.5915,1021.0,-999.00,0.39,yes,no,yes,300234061823050,AWS,BAS,unknown,North
2014-08-05T07:59:31Z,1407225571,2014,7,59,217.333,-999.0,74.8508,-159.3787,1021.0,-999.00,0.11,yes,no,yes,300234061823050,AWS,BAS,unknown,North
2014-08-05T08:58:33Z,1407229114,2014,8,59,217.374,-999.0,74.9836,-159.0755,1020.0,-999.00,0.01,yes,no,yes,300234061823050,AWS,BAS,unknown,North
2014-08-05T09:57:36Z,1407232656,2014,9,58,217.415,-999.0,75.0908,-158.8541,1020.0,-999.00,0.39,yes,no,yes,300234061823050,AWS,BAS,unknown,North
2014-08-05T10:58:04Z,1407236285,2014,10,58,217.457,-999.0,75.0906,-158.8515,1020.0,-999.00,-0.54,yes,no,yes,300234061823050,AWS,BAS,unknown,North
2014-08-05T11:58:33Z,1407239914,2014,11,59,217.499,-999.0,75.0903,-158.8534,1020.0,-999.00,-0.35,yes,no,yes,300234061823050,AWS,BAS,unknown,North
2014-08-05T12:59:02Z,1407243542,2014,12,59,217.541,-999.0,75.0905,-158.8505,1019.0,-999.00,-0.44,yes,no,yes,300234061823050,AWS,BAS,unknown,North
2014-08-05T13:58:04Z,1407247085,2014,13,58,217.582,-999.0,75.0906,-158.8514,1019.0,-999.00,0.03,yes,no,yes,300234061823050,AWS,BAS,unknown,North
2014-08-05T14:58:33Z,1407250714,2014,14,58,217.624,-999.0,75.0906,-158.8517,1019.0,-999.00,0.78,yes,no,yes,300234061823050,AWS,BAS,unknown,North
2014-08-05T15:59:02Z,1407254342,2014,15,59,217.666,-999.0,75.0977,-158.8251,1019.0,-999.00,0.59,yes,no,yes,300234061823050,AWS,BAS,unknown,North
2014-08-05T16:58:04Z,1407257885,2014,16,58,217.707,-999.0,75.0977,-158.8228,1018.0,-999.00,0.31,yes,no,yes,300234061823050,AWS,BAS,unknown,North
2014-08-05T17:58:33Z,1407261514,2014,17,58,217.749,-999.0,75.101,-158.8938,1018.0,-999.00,0.59,yes,no,yes,300234061823050,AWS,BAS,unknown,North
2014-08-05T18:59:02Z,1407265142,2014,18,59,217.791,-999.0,75.1032,-158.8966,1018.0,-999.00,0.68,yes,no,yes,300234061823050,AWS,BAS,unknown,North
2014-08-05T19:58:04Z,1407268685,2014,19,58,217.832,-999.0,75.1401,-158.4923,1018.0,-999.00,0.4,yes,no,yes,300234061823050,AWS,BAS,unknown,North
2014-08-05T20:58:33Z,1407272314,2014,20,59,217.874,-999.0,75.1476,-157.8944,1018.0,-999.00,0.4,yes,no,yes,300234061823050,AWS,BAS,unknown,North
2014-08-05T21:57:36Z,1407275856,2014,21,58,217.915,-999.0,75.1556,-157.3735,1018.0,-999.00,0.12,yes,no,yes,300234061823050,AWS,BAS,unknown,North
2014-08-05T22:58:04Z,1407279485,2014,22,58,217.957,-999.0,75.1533,-156.8225,1018.0,-999.00,0.12,yes,no,yes,300234061823050,AWS,BAS,unknown,North
2014-08-05T23:58:33Z,1407283114,2014,23,59,217.999,-999.0,75.1508,-156.3838,1018.0,-999.00,0.86,yes,no,yes,300234061823050,AWS,BAS,unknown,North
2014-08-06T00:59:02Z,1407286742,2014,0,59,218.041,-999.0,75.1409,-155.9917,1018.0,-999.00,0.77,yes,no,yes,300234061823050,AWS,BAS,unknown,North
2014-08-06T01:58:04Z,1407290285,2014,1,58,218.082,-999.0,75.2107,-155.6214,1018.0,-999.00,1.98,yes,no,yes,300234061823050,AWS,BAS,unknown,North
2014-08-06T02:58:33Z,1407293914,2014,2,59,218.124,-999.0,75.1912,-155.1072,1017.0,-999.00,0.86,yes,no,yes,300234061823050,AWS,BAS,unknown,North
2014-08-06T03:59:02Z,1407297542,2014,3,59,218.166,-999.0,75.1509,-154.9987,1017.0,-999.00,1.14,yes,no,yes,300234061823050,AWS,BAS,unknown,North
2014-08-06T04:59:31Z,1407301171,2014,4,59,218.208,-999.0,75.1509,-154.9964,1017.0,-999.00,1.04,yes,no,yes,300234061823050,AWS,BAS,unknown,North
2014-08-06T05:58:33Z,1407304714,2014,5,59,218.249,-999.0,75.1505,-154.9973,1017.0,-999.00,1.04,yes,no,yes,300234061823050,AWS,BAS,unknown,North
2014-08-06T06:57:36Z,1407308256,2014,6,58,218.29,-999.0,75.1503,-155.0012,1017.0,-999.00,1.04,yes,no,yes,300234061823050,AWS,BAS,unknown,North
2014-08-06T07:59:31Z,1407311971,2014,7,59,218.333,-999.0,75.1577,-154.9889,1017.0,-999.00,0.76,yes,no,yes,300234061823050,AWS,BAS,unknown,North
2014-08-06T08:58:33Z,1407315514,2014,8,58,218.374,-999.0,75.1573,-154.9884,1017.0,-999.00,0.39,yes,no,yes,300234061823050,AWS,BAS,unknown,North
2014-08-06T09:57:36Z,1407319056,2014,9,58,218.415,-999.0,75.157,-154.9029,1018.0,-999.00,0.68,yes,no,yes,300234061823050,AWS,BAS,unknown,North
2014-08-06T10:58:04Z,1407322685,2014,10,58,218.457,-999.0,75.148,-154.4941,1018.0,-999.00,0.86,yes,no,yes,300234061823050,AWS,BAS,unknown,North
2014-08-06T11:58:33Z,1407326314,2014,11,59,218.499,-999.0,75.1534,-153.9634,1018.0,-999.00,0.77,yes,no,yes,300234061823050,AWS,BAS,unknown,North
2014-08-06T12:57:36Z,1407329856,2014,12,58,218.54,-999.0,75.1485,-153.4543,1018.0,-999.00,0.68,yes,no,yes,300234061823050,AWS,BAS,unknown,North
2014-08-06T13:58:04Z,1407333485,2014,13,58,218.582,-999.0,75.1533,-153.0693,1018.0,-999.00,0.49,yes,no,yes,300234061823050,AWS,BAS,unknown,North
2014-08-06T14:58:33Z,1407337114,2014,14,59,218.624,-999.0,75.1149,-152.4576,1018.0,-999.00,0.68,yes,no,yes,300234061823050,AWS,BAS,unknown,North
2014-08-06T15:57:36Z,1407340656,2014,15,58,218.665,-999.0,75.1182,-151.95,1018.0,-999.00,0.68,yes,no,yes,300234061823050,AWS,BAS,unknown,North
2014-08-06T16:59:31Z,1407344371,2014,16,59,218.708,-999.0,75.1349,-151.448,1018.0,-999.00,0.77,yes,no,yes,300234061823050,AWS,BAS,unknown,North
2014-08-06T17:58:33Z,1407347914,2014,17,59,218.749,-999.0,75.1659,-151.2304,1018.0,-999.00,0.95,yes,no,yes,300234061823050,AWS,BAS,unknown,North
2014-08-06T19:59:31Z,1407355171,2014,19,59,218.833,-999.0,75.162,-151.2401,1019.0,-999.00,1.79,yes,no,yes,300234061823050,AWS,BAS,unknown,North
2014-08-06T20:58:33Z,1407358714,2014,20,59,218.874,-999.0,75.1585,-151.2874,1019.0,-999.00,2.54,yes,no,yes,300234061823050,AWS,BAS,unknown,North
2014-08-06T21:59:02Z,1407362342,2014,21,59,218.916,-999.0,75.1584,-151.2867,1019.0,-999.00,2.54,yes,no,yes,300234061823050,AWS,BAS,unknown,North
2014-08-06T22:59:31Z,1407365971,2014,22,59,218.958,-999.0,75.1544,-151.2759,1020.0,-999.00,1.04,yes,no,yes,300234061823050,AWS,BAS,unknown,North
2014-08-06T23:58:33Z,1407369514,2014,23,58,218.999,-999.0,75.1556,-151.2756,1020.0,-999.00,1.23,yes,no,yes,300234061823050,AWS,BAS,unknown,North
2014-08-07T00:59:02Z,1407373142,2014,0,59,219.041,-999.0,75.1561,-151.2832,1021.0,-999.00,1.14,yes,no,yes,300234061823050,AWS,BAS,unknown,North
2014-08-07T02:58:33Z,1407380314,2014,2,59,219.124,-999.0,75.2993,-150.9434,1022.0,-999.00,0.86,yes,no,yes,300234061823050,AWS,BAS,unknown,North
2014-08-07T03:59:02Z,1407383942,2014,3,59,219.166,-999.0,75.3816,-150.498,1023.0,-999.00,0.67,yes,no,yes,300234061823050,AWS,BAS,unknown,North
2014-08-07T04:58:04Z,1407387485,2014,4,58,219.207,-999.0,75.451,-150.1144,1024.0,-999.00,0.29,yes,no,yes,300234061823050,AWS,BAS,unknown,North
2014-08-07T05:58:33Z,1407391114,2014,5,59,219.249,-999.0,75.5062,-149.9104,1024.0,-999.00,-0.17,yes,no,yes,300234061823050,AWS,BAS,unknown,North
2014-08-07T06:57:36Z,1407394656,2014,6,58,219.29,-999.0,75.6094,-149.5881,1025.0,-999.00,-0.64,yes,no,yes,300234061823050,AWS,BAS,unknown,North
2014-08-07T07:59:31Z,1407398371,2014,7,59,219.333,-999.0,75.6666,-149.4963,1026.0,-999.00,-1.1,yes,no,yes,300234061823050,AWS,BAS,unknown,North
2014-08-07T08:58:33Z,1407401914,2014,8,58,219.374,-999.0,75.6927,-149.0778,1026.0,-999.00,-1.19,yes,no,yes,300234061823050,AWS,BAS,unknown,North
2014-08-07T09:59:02Z,1407405542,2014,9,59,219.416,-999.0,75.7855,-148.788,1027.0,-999.00,-1.56,yes,no,yes,300234061823050,AWS,BAS,unknown,North
2014-08-07T10:59:31Z,1407409171,2014,10,59,219.458,-999.0,75.7897,-148.7964,1027.0,-999.00,-2.11,yes,no,yes,300234061823050,AWS,BAS,unknown,North
2014-08-07T11:58:33Z,1407412714,2014,11,58,219.499,-999.0,75.7897,-148.7967,1027.0,-999.00,-2.21,yes,no,yes,300234061823050,AWS,BAS,unknown,North
2014-08-07T12:59:02Z,1407416342,2014,12,59,219.541,-999.0,75.7897,-148.797,1027.0,-999.00,-1.65,yes,no,yes,300234061823050,AWS,BAS,unknown,North
2014-08-07T13:58:04Z,1407419885,2014,13,58,219.582,-999.0,75.7978,-148.7789,1027.0,-999.00,-1.65,yes,no,yes,300234061823050,AWS,BAS,unknown,North
2014-08-07T14:58:33Z,1407423514,2014,14,58,219.624,-999.0,75.8483,-148.5285,1027.0,-999.00,-1.65,yes,no,yes,300234061823050,AWS,BAS,unknown,North
2014-08-07T15:59:02Z,1407427142,2014,15,59,219.666,-999.0,75.9583,-148.1638,1027.0,-999.00,-0.61,yes,no,yes,300234061823050,AWS,BAS,unknown,North
2014-08-07T16:58:04Z,1407430685,2014,16,58,219.707,-999.0,76.022,-148.1046,1027.0,-999.00,0.6,yes,no,yes,300234061823050,AWS,BAS,unknown,North
2014-08-07T17:58:33Z,1407434314,2014,17,58,219.749,-999.0,76.107,-147.8779,1028.0,-999.00,1.52,yes,no,yes,300234061823050,AWS,BAS,unknown,North
2014-08-09T00:57:36Z,1407545856,2014,0,58,221.04,-999.0,77.5925,-146.1276,1029.0,-999.00,0.41,yes,no,yes,300234061823050,AWS,BAS,unknown,North
2014-08-09T01:58:04Z,1407549485,2014,1,58,221.082,-999.0,77.5937,-146.1434,1029.0,-999.00,0.33,yes,no,yes,300234061823050,AWS,BAS,unknown,North
2014-08-09T02:58:33Z,1407553114,2014,2,59,221.124,-999.0,77.5961,-146.15,1028.0,-999.00,0.24,yes,no,yes,300234061823050,AWS,BAS,unknown,North
2014-08-09T03:59:02Z,1407556742,2014,3,59,221.166,-999.0,77.5984,-146.1446,1028.0,-999.00,-0.03,yes,no,yes,300234061823050,AWS,BAS,unknown,North
2014-08-09T04:58:04Z,1407560285,2014,4,58,221.207,-999.0,77.5997,-146.1285,1028.0,-999.00,-0.29,yes,no,yes,300234061823050,AWS,BAS,unknown,North
2014-08-09T05:58:33Z,1407563914,2014,5,59,221.249,-999.0,77.5991,-146.1036,1027.0,-999.00,-0.2,yes,no,yes,300234061823050,AWS,BAS,unknown,North
2014-08-09T06:57:36Z,1407567456,2014,6,58,221.29,-999.0,77.5956,-146.0765,1027.0,-999.00,-0.39,yes,no,yes,300234061823050,AWS,BAS,unknown,North
2014-08-09T07:59:31Z,1407571171,2014,7,59,221.333,-999.0,77.5893,-146.0539,1027.0,-999.00,-0.85,yes,no,yes,300234061823050,AWS,BAS,unknown,North
2014-08-09T08:58:33Z,1407574714,2014,8,58,221.374,-999.0,77.5808,-146.0433,1027.0,-999.00,-0.84,yes,no,yes,300234061823050,AWS,BAS,unknown,North
2014-08-09T09:57:36Z,1407578256,2014,9,58,221.415,-999.0,77.5711,-146.0474,1026.0,-999.00,-1.11,yes,no,yes,300234061823050,AWS,BAS,unknown,North
2014-08-09T10:59:31Z,1407581971,2014,10,59,221.458,-999.0,77.5621,-146.0656,1026.0,-999.00,-1.39,yes,no,yes,300234061823050,AWS,BAS,unknown,North
2014-08-09T11:58:33Z,1407585514,2014,11,58,221.499,-999.0,77.5555,-146.0953,1026.0,-999.00,-1.48,yes,no,yes,300234061823050,AWS,BAS,unknown,North
2014-08-09T12:57:36Z,1407589056,2014,12,58,221.54,-999.0,77.5515,-146.1323,1026.0,-999.00,-2.33,yes,no,yes,300234061823050,AWS,BAS,unknown,North
2014-08-09T13:58:04Z,1407592685,2014,13,58,221.582,-999.0,77.5504,-146.1694,1026.0,-999.00,-2.7,yes,no,yes,300234061823050,AWS,BAS,unknown,North
2014-08-09T14:58:33Z,1407596314,2014,14,59,221.624,-999.0,77.5519,-146.2005,1026.0,-999.00,-2.51,yes,no,yes,300234061823050,AWS,BAS,unknown,North
2014-08-09T15:57:36Z,1407599856,2014,15,58,221.665,-999.0,77.5547,-146.2193,1026.0,-999.00,-2.79,yes,no,yes,300234061823050,AWS,BAS,unknown,North
2014-08-09T16:58:04Z,1407603485,2014,16,58,221.707,-999.0,77.5577,-146.2243,1026.0,-999.00,-2.42,yes,no,yes,300234061823050,AWS,BAS,unknown,North
2014-08-09T17:58:33Z,1407607114,2014,17,58,221.749,-999.0,77.5595,-146.2173,1026.0,-999.00,-2.61,yes,no,yes,300234061823050,AWS,BAS,unknown,North
2014-08-09T18:59:02Z,1407610742,2014,18,59,221.791,-999.0,77.5587,-146.201,1025.0,-999.00,-2.51,yes,no,yes,300234061823050,AWS,BAS,unknown,North
2014-08-09T19:58:04Z,1407614285,2014,19,58,221.832,-999.0,77.5552,-146.1823,1026.0,-999.00,-1.76,yes,no,yes,300234061823050,AWS,BAS,unknown,North
2014-08-09T20:58:33Z,1407617914,2014,20,58,221.874,-999.0,77.5492,-146.1673,1026.0,-999.00,-1.67,yes,no,yes,300234061823050,AWS,BAS,unknown,North
2014-08-09T21:59:02Z,1407621542,2014,21,59,221.916,-999.0,77.5409,-146.1622,1025.0,-999.00,-1.4,yes,no,yes,300234061823050,AWS,BAS,unknown,North
2014-08-09T22:59:31Z,1407625171,2014,22,59,221.958,-999.0,77.5328,-146.1729,1025.0,-999.00,-1.22,yes,no,yes,300234061823050,AWS,BAS,unknown,North
2014-08-09T23:58:33Z,1407628714,2014,23,58,221.999,-999.0,77.5257,-146.1938,1025.0,-999.00,-1.22,yes,no,yes,300234061823050,AWS,BAS,unknown,North
2014-08-10T00:57:36Z,1407632256,2014,0,58,222.04,-999.0,77.5207,-146.2233,1025.0,-999.00,-0.94,yes,no,yes,300234061823050,AWS,BAS,unknown,North
2014-08-10T01:59:31Z,1407635971,2014,1,59,222.083,-999.0,77.5181,-146.2554,1025.0,-999.00,-1.31,yes,no,yes,300234061823050,AWS,BAS,unknown,North
2014-08-10T02:58:33Z,1407639514,2014,2,58,222.124,-999.0,77.5182,-146.2853,1025.0,-999.00,-1.4,yes,no,yes,300234061823050,AWS,BAS,unknown,North
2014-08-10T03:57:36Z,1407643056,2014,3,58,222.165,-999.0,77.5212,-146.3061,1024.0,-999.00,-1.11,yes,no,yes,300234061823050,AWS,BAS,unknown,North
2014-08-10T04:58:04Z,1407646685,2014,4,58,222.207,-999.0,77.5249,-146.316,1024.0,-999.00,-1.58,yes,no,yes,300234061823050,AWS,BAS,unknown,North
2014-08-10T05:58:33Z,1407650314,2014,5,59,222.249,-999.0,77.5287,-146.3134,1024.0,-999.00,-1.76,yes,no,yes,300234061823050,AWS,BAS,unknown,North
2014-08-10T06:57:36Z,1407653856,2014,6,58,222.29,-999.0,77.5315,-146.2995,1025.0,-999.00,-2.42,yes,no,yes,300234061823050,AWS,BAS,unknown,North
2014-08-10T07:58:04Z,1407657485,2014,7,58,222.332,-999.0,77.5325,-146.2774,1025.0,-999.00,-3.08,yes,no,yes,300234061823050,AWS,BAS,unknown,North
2014-08-10T08:58:33Z,1407661114,2014,8,58,222.374,-999.0,77.5309,-146.2547,1025.0,-999.00,-3.44,yes,no,yes,300234061823050,AWS,BAS,unknown,North
2014-08-10T09:59:02Z,1407664742,2014,9,59,222.416,-999.0,77.5264,-146.2376,1025.0,-999.00,-3.81,yes,no,yes,300234061823050,AWS,BAS,unknown,North
2014-08-10T10:58:04Z,1407668285,2014,10,58,222.457,-999.0,77.5211,-146.2316,1025.0,-999.00,-4.27,yes,no,yes,300234061823050,AWS,BAS,unknown,North
2014-08-10T11:58:33Z,1407671914,2014,11,58,222.499,-999.0,77.5161,-146.2384,1025.0,-999.00,-4.74,yes,no,yes,300234061823050,AWS,BAS,unknown,North
2014-08-10T12:59:02Z,1407675542,2014,12,59,222.541,-999.0,77.5125,-146.2542,1025.0,-999.00,-4.92,yes,no,yes,300234061823050,AWS,BAS,unknown,North
2014-08-10T13:58:04Z,1407679085,2014,13,58,222.582,-999.0,77.5111,-146.2759,1024.0,-999.00,-4.92,yes,no,yes,300234061823050,AWS,BAS,unknown,North
2014-08-10T14:58:33Z,1407682714,2014,14,58,222.624,-999.0,77.5125,-146.2973,1025.0,-999.00,-4.64,yes,no,yes,300234061823050,AWS,BAS,unknown,North
2014-08-10T15:59:02Z,1407686342,2014,15,59,222.666,-999.0,77.5158,-146.3112,1024.0,-999.00,-4.08,yes,no,yes,300234061823050,AWS,BAS,unknown,North
2014-08-10T16:59:31Z,1407689971,2014,16,59,222.708,-999.0,77.52,-146.3129,1024.0,-999.00,-3.72,yes,no,yes,300234061823050,AWS,BAS,unknown,North
2014-08-10T17:58:33Z,1407693514,2014,17,58,222.749,-999.0,77.5233,-146.3029,1024.0,-999.00,-3.26,yes,no,yes,300234061823050,AWS,BAS,unknown,North
2014-08-10T18:57:36Z,1407697056,2014,18,58,222.79,-999.0,77.525,-146.283,1024.0,-999.00,-2.7,yes,no,yes,300234061823050,AWS,BAS,unknown,North
2014-08-10T19:59:31Z,1407700771,2014,19,59,222.833,-999.0,77.5242,-146.2565,1024.0,-999.00,-2.15,yes,no,yes,300234061823050,AWS,BAS,unknown,North
2014-08-10T20:58:33Z,1407704314,2014,20,58,222.874,-999.0,77.5207,-146.2313,1024.0,-999.00,-1.6,yes,no,yes,300234061823050,AWS,BAS,unknown,North
2014-08-10T21:57:36Z,1407707856,2014,21,58,222.915,-999.0,77.515,-146.2137,1024.0,-999.00,-1.14,yes,no,yes,300234061823050,AWS,BAS,unknown,North
2014-08-10T22:59:31Z,1407711571,2014,22,59,222.958,-999.0,77.5084,-146.2067,1024.0,-999.00,-0.67,yes,no,yes,300234061823050,AWS,BAS,unknown,North
2014-08-10T23:58:33Z,1407715114,2014,23,58,222.999,-999.0,77.5023,-146.2092,1024.0,-999.00,-0.57,yes,no,yes,300234061823050,AWS,BAS,unknown,North
2014-08-11T00:57:36Z,1407718656,2014,0,58,223.04,-999.0,77.4974,-146.2183,1023.0,-999.00,-0.48,yes,no,yes,300234061823050,AWS,BAS,unknown,North
2014-08-11T01:59:31Z,1407722371,2014,1,59,223.083,-999.0,77.4947,-146.2289,1023.0,-999.00,-0.48,yes,no,yes,300234061823050,AWS,BAS,unknown,North
2014-08-11T02:58:33Z,1407725914,2014,2,58,223.124,-999.0,77.4941,-146.2352,1023.0,-999.00,-0.48,yes,no,yes,300234061823050,AWS,BAS,unknown,North
2014-08-11T03:57:36Z,1407729456,2014,3,58,223.165,-999.0,77.4949,-146.2343,1022.0,-999.00,-0.56,yes,no,yes,300234061823050,AWS,BAS,unknown,North
2014-08-11T04:58:04Z,1407733085,2014,4,58,223.207,-999.0,77.4962,-146.2248,1022.0,-999.00,-0.37,yes,no,yes,300234061823050,AWS,BAS,unknown,North
2014-08-11T05:58:33Z,1407736714,2014,5,59,223.249,-999.0,77.4967,-146.2053,1022.0,-999.00,-0.74,yes,no,yes,300234061823050,AWS,BAS,unknown,North
2014-08-11T06:57:36Z,1407740256,2014,6,58,223.29,-999.0,77.4955,-146.1823,1022.0,-999.00,-0.92,yes,no,yes,300234061823050,AWS,BAS,unknown,North
2014-08-11T07:58:04Z,1407743885,2014,7,58,223.332,-999.0,77.4927,-146.159,1022.0,-999.00,-1.48,yes,no,yes,300234061823050,AWS,BAS,unknown,North
2014-08-11T08:58:33Z,1407747514,2014,8,58,223.374,-999.0,77.4862,-146.141,1022.0,-999.00,-1.02,yes,no,yes,300234061823050,AWS,BAS,unknown,North
2014-08-11T09:59:02Z,1407751142,2014,9,59,223.416,-999.0,77.4773,-146.1349,1023.0,-999.00,-1.11,yes,no,yes,300234061823050,AWS,BAS,unknown,North
2014-08-11T10:58:04Z,1407754685,2014,10,58,223.457,-999.0,77.4687,-146.1417,1022.0,-999.00,-1.29,yes,no,yes,300234061823050,AWS,BAS,unknown,North